sat.trackr.live / text

‹ back to catalog

ONEWEB-0007

NORAD 44060 · 2019-010D

PAYLOAD ACTIVE UNKNOWN

§ Identity

Operator
Country
UK
Launch date
2019-02-27
Launch site
FRGUI
Launch vehicle
Mass (kg)
RCS (m²)

Purposes: comms

External: N2YO · Heavens-Above · Gunter

§ Orbital elements

Epoch: 2026-05-24T20:05:44.491200Z

Period
109.46 min
Inclination
87.8989°
Eccentricity
0.0001809
Mean motion
13.15546924 rev/d
Perigee alt
1,200.4 km
Apogee alt
1,203.1 km
Semi-major
7,579.9 km
B*
-7.6200e-5
RAAN
263.8742°
Arg perigee
90.7273°
Mean anomaly
269.4064°
Rev number
34,830

§ Raw data

ONEWEB-00071 44060U 19010D   26144.83732050 -.00000016  00000+0 -76200-4 0  99972 44060  87.8989 263.8742 0001809  90.7273 269.4064 13.15546924348302

JSON: /api/v1/satellites/44060 · /tle

For live sub-satellite position, see the globe view (requires WebGL).

§ Visibility from observer

Set your observer location to see the next 7 days of passes ≥ 10°. The values pass through the URL so the page stays shareable.

No JS? Fill the form by hand. The geolocation button needs JavaScript.